| time (UTC) | temp F | wind direction | speed MPH | gust MPH | rain 1hr in | rain 24hr in | rain mn in | humidity % | barometer mb |
| 20260505230503 | 57 | 344 | 3.0 | 12.0 | 0.00 | 0.03 | 0.03 | 35 | 1011.5 |
| 20260505225504 | 57 | 306 | 3.0 | 10.0 | 0.00 | 0.03 | 0.03 | 36 | 1011.4 |
| 20260505225003 | 57 | 290 | 2.0 | 8.0 | 0.00 | 0.03 | 0.03 | 36 | 1011.4 |
| 20260505224713 | 57 | 311 | 2.0 | 11.0 | 0.00 | 0.03 | 0.03 | 35 | 1011.3 |
| 20260505224003 | 57 | 325 | 3.0 | 11.0 | 0.00 | 0.03 | 0.03 | 34 | 1011.4 |
| 20260505223503 | 58 | 300 | 3.0 | 9.0 | 0.00 | 0.03 | 0.03 | 35 | 1011.3 |
| 20260505223003 | 58 | 340 | 3.0 | 9.0 | 0.00 | 0.03 | 0.03 | 37 | 1011.4 |
| 20260505222503 | 58 | 3 | 2.0 | 8.0 | 0.00 | 0.03 | 0.03 | 34 | 1011.2 |
| 20260505222003 | 58 | 287 | 3.0 | 8.0 | 0.00 | 0.03 | 0.03 | 37 | 1011.2 |
| 20260505221503 | 58 | 292 | 3.0 | 9.0 | 0.00 | 0.03 | 0.03 | 34 | 1011.2 |
| 20260505221004 | 58 | 305 | 2.0 | 9.0 | 0.00 | 0.03 | 0.03 | 37 | 1011.2 |
| 20260505220503 | 58 | 345 | 3.0 | 9.0 | 0.00 | 0.03 | 0.03 | 37 | 1011.2 |
| 20260505220003 | 58 | 333 | 3.0 | 14.0 | 0.00 | 0.03 | 0.03 | 37 | 1011.3 |
| 20260505215503 | 58 | 285 | 3.0 | 14.0 | 0.00 | 0.03 | 0.03 | 37 | 1011.3 |
| 20260505215003 | 58 | 304 | 3.0 | 8.0 | 0.00 | 0.03 | 0.03 | 36 | 1011.2 |
| 20260505214003 | 58 | 115 | 1.0 | 5.0 | 0.00 | 0.03 | 0.03 | 36 | 1011.4 |
| 20260505213503 | 58 | 332 | 2.0 | 5.0 | 0.00 | 0.03 | 0.03 | 40 | 1011.4 |
| 20260505213003 | 57 | 304 | 2.0 | 9.0 | 0.00 | 0.03 | 0.03 | 39 | 1011.4 |
| 20260505212503 | 57 | 307 | 3.0 | 9.0 | 0.00 | 0.03 | 0.03 | 37 | 1011.5 |
| 20260505212003 | 57 | 310 | 3.0 | 10.0 | 0.00 | 0.03 | 0.03 | 35 | 1011.5 |
| 20260505211503 | 57 | 316 | 3.0 | 10.0 | 0.00 | 0.03 | 0.03 | 38 | 1011.7 |
| 20260505211003 | 57 | 346 | 3.0 | 8.0 | 0.00 | 0.03 | 0.03 | 39 | 1011.7 |
| 20260505210503 | 57 | 342 | 3.0 | 14.0 | 0.00 | 0.03 | 0.03 | 37 | 1011.7 |
| 20260505210003 | 58 | 339 | 3.0 | 15.0 | 0.00 | 0.03 | 0.03 | 37 | 1011.7 |
| 20260505205503 | 58 | 305 | 3.0 | 15.0 | 0.00 | 0.03 | 0.03 | 36 | 1011.8 |
| 20260505205214 | 58 | 283 | 3.0 | 12.0 | 0.00 | 0.03 | 0.03 | 39 | 1011.7 |
| 20260505204503 | 58 | 274 | 4.0 | 13.0 | 0.00 | 0.03 | 0.03 | 37 | 1011.8 |
| 20260505204003 | 59 | 296 | 3.0 | 13.0 | 0.00 | 0.04 | 0.03 | 36 | 1011.8 |
| 20260505203504 | 59 | 296 | 4.0 | 10.0 | 0.00 | 0.04 | 0.03 | 37 | 1011.7 |
| 20260505203003 | 59 | 306 | 4.0 | 12.0 | 0.00 | 0.04 | 0.03 | 38 | 1011.8 |
| 20260505202503 | 60 | 312 | 3.0 | 12.0 | 0.00 | 0.04 | 0.03 | 35 | 1011.9 |
| 20260505202003 | 60 | 304 | 3.0 | 9.0 | 0.00 | 0.04 | 0.03 | 38 | 1011.9 |
| 20260505201503 | 60 | 291 | 4.0 | 10.0 | 0.00 | 0.04 | 0.03 | 35 | 1012.0 |
| 20260505201003 | 60 | 287 | 4.0 | 10.0 | 0.00 | 0.04 | 0.03 | 38 | 1012.0 |
| 20260505200503 | 60 | 297 | 4.0 | 12.0 | 0.00 | 0.04 | 0.03 | 34 | 1012.1 |
| 20260505200003 | 60 | 282 | 5.0 | 16.0 | 0.00 | 0.04 | 0.03 | 35 | 1012.0 |
| 20260505195503 | 60 | 291 | 5.0 | 16.0 | 0.00 | 0.04 | 0.03 | 36 | 1012.0 |
| 20260505195003 | 59 | 322 | 3.0 | 8.0 | 0.00 | 0.04 | 0.03 | 38 | 1012.0 |
| 20260505194503 | 59 | 312 | 3.0 | 13.0 | 0.00 | 0.04 | 0.03 | 39 | 1012.1 |
| 20260505194003 | 59 | 338 | 4.0 | 13.0 | 0.00 | 0.04 | 0.03 | 42 | 1012.2 |
| 20260505193504 | 59 | 315 | 4.0 | 11.0 | 0.00 | 0.04 | 0.03 | 39 | 1012.3 |
| 20260505193003 | 58 | 283 | 3.0 | 11.0 | 0.00 | 0.04 | 0.03 | 38 | 1012.3 |
| 20260505192503 | 58 | 300 | 3.0 | 10.0 | 0.00 | 0.04 | 0.03 | 38 | 1012.3 |
| 20260505192003 | 58 | 297 | 3.0 | 13.0 | 0.00 | 0.04 | 0.03 | 39 | 1012.4 |
| 20260505191503 | 58 | 305 | 3.0 | 13.0 | 0.00 | 0.04 | 0.03 | 43 | 1012.4 |
| 20260505191003 | 58 | 301 | 3.0 | 11.0 | 0.00 | 0.04 | 0.03 | 41 | 1012.5 |
| 20260505190504 | 58 | 317 | 2.0 | 7.0 | 0.00 | 0.04 | 0.03 | 45 | 1012.4 |
| 20260505190003 | 57 | 316 | 2.0 | 7.0 | 0.00 | 0.04 | 0.03 | 43 | 1012.4 |
| 20260505185714 | 57 | 272 | 2.0 | 9.0 | 0.00 | 0.04 | 0.03 | 44 | 1012.5 |
| 20260505185213 | 57 | 262 | 3.0 | 9.0 | 0.00 | 0.04 | 0.03 | 46 | 1012.7 |
| 20260505184503 | 57 | 338 | 3.0 | 10.0 | 0.00 | 0.04 | 0.03 | 45 | 1012.7 |
| 20260505184003 | 56 | 41 | 3.0 | 10.0 | 0.00 | 0.04 | 0.03 | 40 | 1012.6 |
| 20260505183503 | 56 | 275 | 3.0 | 9.0 | 0.00 | 0.04 | 0.03 | 44 | 1012.7 |
| 20260505183003 | 56 | 159 | 2.0 | 8.0 | 0.00 | 0.04 | 0.03 | 43 | 1012.9 |
| 20260505182503 | 56 | 84 | 2.0 | 6.0 | 0.00 | 0.04 | 0.03 | 48 | 1012.9 |
| 20260505182003 | 56 | 8 | 2.0 | 6.0 | 0.00 | 0.04 | 0.03 | 41 | 1013.0 |
| 20260505181213 | 57 | 306 | 3.0 | 8.0 | 0.00 | 0.04 | 0.03 | 41 | 1013.1 |
| 20260505180504 | 58 | 277 | 3.0 | 10.0 | 0.00 | 0.04 | 0.03 | 47 | 1013.0 |
| 20260505180003 | 58 | 270 | 2.0 | 9.0 | 0.00 | 0.04 | 0.03 | 46 | 1013.1 |
| 20260505175714 | 58 | 269 | 2.0 | 9.0 | 0.00 | 0.04 | 0.03 | 43 | 1013.1 |
| 20260505175003 | 57 | 275 | 3.0 | 8.0 | 0.00 | 0.04 | 0.03 | 50 | 1012.9 |
| 20260505174503 | 56 | 270 | 2.0 | 8.0 | 0.00 | 0.04 | 0.03 | 47 | 1012.9 |
| 20260505174003 | 55 | 41 | 3.0 | 9.0 | 0.00 | 0.04 | 0.03 | 47 | 1012.8 |
| 20260505173503 | 55 | 27 | 3.0 | 9.0 | 0.00 | 0.04 | 0.03 | 47 | 1012.9 |
| 20260505173003 | 54 | 22 | 2.0 | 4.0 | 0.00 | 0.04 | 0.03 | 45 | 1013.1 |
| 20260505172503 | 54 | 352 | 3.0 | 9.0 | 0.00 | 0.04 | 0.03 | 44 | 1013.3 |
| 20260505172003 | 55 | 350 | 3.0 | 9.0 | 0.00 | 0.04 | 0.03 | 49 | 1013.3 |
| 20260505171503 | 54 | 93 | 2.0 | 8.0 | 0.00 | 0.04 | 0.03 | 48 | 1013.2 |
| 20260505171003 | 54 | 262 | 2.0 | 8.0 | 0.00 | 0.04 | 0.03 | 51 | 1013.2 |
| 20260505170503 | 53 | 287 | 3.0 | 11.0 | 0.00 | 0.04 | 0.03 | 48 | 1013.2 |
| 20260505170003 | 53 | 329 | 2.0 | 11.0 | 0.00 | 0.04 | 0.03 | 53 | 1013.4 |
| 20260505165503 | 53 | 342 | 2.0 | 4.0 | 0.00 | 0.04 | 0.03 | 49 | 1013.3 |
| 20260505165003 | 53 | 323 | 2.0 | 7.0 | 0.00 | 0.04 | 0.03 | 52 | 1013.3 |
| 20260505164503 | 53 | 285 | 2.0 | 7.0 | 0.00 | 0.04 | 0.03 | 53 | 1013.3 |
| 20260505164003 | 53 | 280 | 3.0 | 7.0 | 0.00 | 0.04 | 0.03 | 57 | 1013.3 |
| 20260505163503 | 52 | 337 | 2.0 | 6.0 | 0.00 | 0.04 | 0.03 | 60 | 1013.3 |
| 20260505163009 | 52 | 10 | 2.0 | 4.0 | 0.00 | 0.04 | 0.03 | 57 | 1013.3 |
| 20260505162713 | 51 | 336 | 1.0 | 4.0 | 0.00 | 0.04 | 0.03 | 57 | 1013.2 |
| 20260505162214 | 51 | 263 | 2.0 | 7.0 | 0.00 | 0.04 | 0.03 | 58 | 1013.1 |
| 20260505161503 | 51 | 262 | 2.0 | 6.0 | 0.00 | 0.04 | 0.03 | 60 | 1012.9 |
| 20260505161003 | 51 | 309 | 2.0 | 6.0 | 0.00 | 0.04 | 0.03 | 59 | 1013.0 |
| 20260505160503 | 51 | 330 | 2.0 | 5.0 | 0.00 | 0.04 | 0.03 | 60 | 1012.8 |
| 20260505153003 | 50 | 293 | 2.0 | 8.0 | 0.00 | 0.04 | 0.03 | 61 | 1012.8 |
| 20260505152504 | 49 | 288 | 2.0 | 8.0 | 0.00 | 0.04 | 0.03 | 61 | 1012.9 |
| 20260505152003 | 49 | 315 | 1.0 | 7.0 | 0.00 | 0.04 | 0.03 | 60 | 1012.8 |
| 20260505151503 | 49 | 333 | 2.0 | 6.0 | 0.00 | 0.04 | 0.03 | 61 | 1012.6 |
| 20260505151214 | 49 | 325 | 2.0 | 5.0 | 0.00 | 0.04 | 0.03 | 60 | 1012.5 |
| 20260505150503 | 49 | 326 | 2.0 | 4.0 | 0.00 | 0.04 | 0.03 | 60 | 1012.5 |
| 20260505125003 | 49 | 261 | 0.0 | 2.0 | 0.00 | 0.04 | 0.03 | 66 | 1011.1 |
| 20260505124503 | 49 | 261 | 0.0 | 2.0 | 0.00 | 0.04 | 0.03 | 66 | 1011.0 |
| 20260505124003 | 48 | 261 | 0.0 | 1.0 | 0.00 | 0.04 | 0.03 | 67 | 1010.8 |
| 20260505123503 | 48 | 0 | 0.0 | 0.0 | 0.00 | 0.04 | 0.03 | 67 | 1010.7 |
| 20260505123003 | 48 | 0 | 0.0 | 0.0 | 0.00 | 0.04 | 0.03 | 70 | 1010.7 |
| 20260505122716 | 48 | 0 | 0.0 | 0.0 | 0.00 | 0.04 | 0.03 | 70 | 1010.7 |
| 20260505122003 | 48 | 0 | 0.0 | 0.0 | 0.00 | 0.04 | 0.03 | 74 | 1010.5 |
| 20260505121503 | 48 | 0 | 0.0 | 0.0 | 0.00 | 0.04 | 0.03 | 75 | 1010.5 |
| 20260505121003 | 48 | 0 | 0.0 | 0.0 | 0.00 | 0.04 | 0.03 | 75 | 1010.4 |
| 20260505120503 | 47 | 0 | 0.0 | 0.0 | 0.00 | 0.04 | 0.03 | 74 | 1010.2 |
| 20260505120004 | 47 | 0 | 0.0 | 0.0 | 0.00 | 0.04 | 0.03 | 75 | 1010.3 |
| 20260505115504 | 47 | 0 | 0.0 | 1.0 | 0.00 | 0.04 | 0.03 | 73 | 1010.1 |
| 20260505115003 | 47 | 261 | 0.0 | 2.0 | 0.00 | 0.04 | 0.03 | 73 | 1010.0 |
| 20260505114503 | 47 | 261 | 0.0 | 2.0 | 0.00 | 0.04 | 0.03 | 74 | 1009.8 |
| 20260505114003 | 47 | 261 | 0.0 | 1.0 | 0.00 | 0.04 | 0.03 | 76 | 1009.6 |
| 20260505113503 | 47 | 261 | 0.0 | 1.0 | 0.00 | 0.04 | 0.03 | 77 | 1009.8 |
| 20260505113003 | 47 | 261 | 0.0 | 1.0 | 0.00 | 0.04 | 0.03 | 78 | 1009.6 |
| 20260505112503 | 47 | 0 | 0.0 | 0.0 | 0.00 | 0.04 | 0.03 | 79 | 1009.7 |
| 20260505112003 | 47 | 0 | 0.0 | 0.0 | 0.00 | 0.04 | 0.03 | 79 | 1009.7 |
| 20260505111503 | 47 | 0 | 0.0 | 0.0 | 0.00 | 0.04 | 0.03 | 79 | 1009.7 |
| 20260505111003 | 47 | 261 | 0.0 | 1.0 | 0.00 | 0.04 | 0.03 | 79 | 1009.9 |
| 20260505110713 | 47 | 261 | 0.0 | 1.0 | 0.00 | 0.04 | 0.03 | 79 | 1009.8 |
| 20260505102004 | 47 | 0 | 0.0 | 0.0 | 0.00 | 0.04 | 0.03 | 82 | 1010.2 |
| 20260505101503 | 47 | 0 | 0.0 | 0.0 | 0.00 | 0.04 | 0.03 | 84 | 1010.2 |
| 20260505101003 | 47 | 0 | 0.0 | 0.0 | 0.00 | 0.04 | 0.03 | 84 | 1010.2 |
| 20260505100713 | 48 | 0 | 0.0 | 0.0 | 0.00 | 0.04 | 0.03 | 85 | 1010.0 |
| 20260505095713 | 48 | 261 | 0.0 | 1.0 | 0.00 | 0.04 | 0.03 | 85 | 1010.1 |
| 20260505095003 | 48 | 261 | 0.0 | 1.0 | 0.00 | 0.04 | 0.03 | 85 | 1010.1 |
| 20260505094503 | 48 | 261 | 0.0 | 1.0 | 0.00 | 0.04 | 0.03 | 85 | 1010.1 |
| 20260505094003 | 48 | 261 | 0.0 | 2.0 | 0.00 | 0.04 | 0.03 | 85 | 1010.0 |
| 20260505093503 | 48 | 261 | 0.0 | 2.0 | 0.00 | 0.04 | 0.03 | 85 | 1010.0 |
| 20260505093004 | 48 | 261 | 0.0 | 1.0 | 0.00 | 0.04 | 0.03 | 85 | 1009.7 |
| 20260505092712 | 48 | 261 | 0.0 | 2.0 | 0.00 | 0.04 | 0.03 | 85 | 1009.7 |
| 20260505092005 | 48 | 261 | 0.0 | 2.0 | 0.00 | 0.04 | 0.03 | 84 | 1009.6 |
| 20260505091503 | 48 | 261 | 0.0 | 2.0 | 0.00 | 0.04 | 0.03 | 84 | 1009.4 |
| 20260505091003 | 48 | 261 | 0.0 | 2.0 | 0.00 | 0.04 | 0.03 | 84 | 1009.2 |
| 20260505090714 | 48 | 260 | 0.0 | 2.0 | 0.00 | 0.04 | 0.03 | 83 | 1009.3 |
| 20260505090003 | 48 | 260 | 0.0 | 2.0 | 0.00 | 0.04 | 0.03 | 83 | 1009.1 |
| 20260505085503 | 48 | 260 | 0.0 | 2.0 | 0.00 | 0.04 | 0.03 | 84 | 1009.2 |
| 20260505085004 | 48 | 260 | 0.0 | 2.0 | 0.00 | 0.04 | 0.03 | 84 | 1009.2 |
| 20260505084503 | 48 | 262 | 1.0 | 4.0 | 0.00 | 0.04 | 0.03 | 85 | 1009.1 |
| 20260505084003 | 48 | 268 | 1.0 | 4.0 | 0.01 | 0.04 | 0.03 | 85 | 1009.0 |
| 20260505083503 | 49 | 279 | 1.0 | 3.0 | 0.01 | 0.04 | 0.03 | 85 | 1009.2 |
| 20260505083213 | 48 | 280 | 1.0 | 4.0 | 0.01 | 0.04 | 0.03 | 86 | 1009.2 |
| 20260505082503 | 49 | 301 | 1.0 | 4.0 | 0.01 | 0.04 | 0.03 | 87 | 1009.2 |
| 20260505082003 | 49 | 318 | 1.0 | 4.0 | 0.01 | 0.04 | 0.03 | 87 | 1009.1 |
| 20260505081714 | 49 | 319 | 2.0 | 4.0 | 0.01 | 0.04 | 0.03 | 87 | 1009.0 |
| 20260505081003 | 48 | 322 | 0.0 | 3.0 | 0.01 | 0.04 | 0.03 | 86 | 1008.8 |
| 20260505080503 | 48 | 0 | 0.0 | 0.0 | 0.01 | 0.04 | 0.03 | 85 | 1008.6 |
| 20260505080003 | 48 | 0 | 0.0 | 0.0 | 0.01 | 0.04 | 0.03 | 85 | 1008.4 |
| 20260505075503 | 48 | 0 | 0.0 | 0.0 | 0.01 | 0.04 | 0.03 | 84 | 1008.5 |
| 20260505075004 | 49 | 0 | 0.0 | 0.0 | 0.02 | 0.04 | 0.03 | 85 | 1008.5 |
| 20260505074503 | 48 | 0 | 0.0 | 0.0 | 0.02 | 0.04 | 0.03 | 85 | 1008.6 |
| 20260505074003 | 48 | 0 | 0.0 | 0.0 | 0.01 | 0.03 | 0.02 | 83 | 1008.5 |
| 20260505073503 | 48 | 0 | 0.0 | 0.0 | 0.01 | 0.03 | 0.02 | 83 | 1008.6 |
| 20260505073003 | 48 | 0 | 0.0 | 0.0 | 0.01 | 0.03 | 0.02 | 83 | 1008.6 |
| 20260505072503 | 48 | 13 | 0.0 | 2.0 | 0.01 | 0.03 | 0.02 | 82 | 1008.7 |
| 20260505072003 | 48 | 13 | 0.0 | 2.0 | 0.01 | 0.03 | 0.02 | 81 | 1008.6 |
| 20260505071503 | 48 | 0 | 0.0 | 0.0 | 0.01 | 0.03 | 0.02 | 80 | 1008.4 |
| 20260505071003 | 49 | 0 | 0.0 | 0.0 | 0.01 | 0.03 | 0.02 | 80 | 1008.4 |
| 20260505070503 | 49 | 0 | 0.0 | 1.0 | 0.01 | 0.03 | 0.02 | 80 | 1008.4 |
| 20260505070003 | 49 | 13 | 0.0 | 2.0 | 0.01 | 0.03 | 0.02 | 78 | 1008.5 |
| 20260505065713 | 49 | 13 | 0.0 | 2.0 | 0.01 | 0.03 | 0.02 | 77 | 1008.5 |
| 20260505065003 | 50 | 14 | 0.0 | 3.0 | 0.00 | 0.02 | 0.01 | 75 | 1008.1 |
| 20260505064503 | 50 | 11 | 1.0 | 4.0 | 0.00 | 0.02 | 0.01 | 73 | 1008.1 |
| 20260505064003 | 50 | 9 | 1.0 | 4.0 | 0.00 | 0.02 | 0.01 | 71 | 1008.1 |
| 20260505063503 | 50 | 14 | 1.0 | 4.0 | 0.00 | 0.02 | 0.01 | 70 | 1008.4 |
| 20260505063003 | 50 | 37 | 2.0 | 5.0 | 0.00 | 0.02 | 0.01 | 70 | 1008.6 |
| 20260505062503 | 50 | 46 | 2.0 | 5.0 | 0.00 | 0.02 | 0.01 | 69 | 1008.1 |
| 20260505062003 | 50 | 32 | 2.0 | 5.0 | 0.00 | 0.02 | 0.01 | 67 | 1008.3 |
| 20260505061503 | 50 | 360 | 1.0 | 4.0 | 0.00 | 0.02 | 0.01 | 66 | 1008.7 |
| 20260505061003 | 50 | 360 | 1.0 | 4.0 | 0.01 | 0.02 | 0.01 | 66 | 1009.2 |
| 20260505060503 | 50 | 43 | 1.0 | 10.0 | 0.01 | 0.02 | 0.01 | 64 | 1008.8 |
| 20260505060214 | 50 | 45 | 2.0 | 10.0 | 0.01 | 0.02 | 0.01 | 64 | 1008.7 |
| 20260505055503 | 50 | 36 | 2.0 | 5.0 | 0.01 | 0.02 | 0.01 | 64 | 1008.4 |
| 20260505055003 | 50 | 52 | 1.0 | 4.0 | 0.01 | 0.02 | 0.01 | 65 | 1008.7 |
| 20260505054504 | 50 | 52 | 2.0 | 5.0 | 0.01 | 0.02 | 0.01 | 63 | 1008.8 |
| 20260505054214 | 50 | 44 | 2.0 | 5.0 | 0.01 | 0.02 | 0.01 | 64 | 1008.7 |
| 20260505053503 | 51 | 41 | 2.0 | 7.0 | 0.01 | 0.02 | 0.01 | 63 | 1008.8 |
| 20260505053003 | 51 | 49 | 3.0 | 8.0 | 0.01 | 0.02 | 0.01 | 64 | 1008.7 |
| 20260505052713 | 51 | 43 | 3.0 | 9.0 | 0.01 | 0.02 | 0.01 | 65 | 1008.7 |
| 20260505052003 | 51 | 42 | 5.0 | 13.0 | 0.01 | 0.02 | 0.01 | 63 | 1008.1 |
| 20260505051713 | 51 | 45 | 4.0 | 13.0 | 0.01 | 0.02 | 0.01 | 64 | 1008.0 |
| 20260505051214 | 51 | 46 | 4.0 | 12.0 | 0.01 | 0.02 | 0.01 | 64 | 1008.1 |
| 20260505050503 | 51 | 39 | 3.0 | 7.0 | 0.00 | 0.01 | 0.00 | 65 | 1008.4 |
| 20260505041504 | 55 | 353 | 3.0 | 10.0 | 0.00 | 0.01 | 0.01 | 46 | 1009.0 |
| 20260505041003 | 55 | 6 | 3.0 | 11.0 | 0.00 | 0.01 | 0.01 | 45 | 1008.8 |
| 20260505040503 | 56 | 5 | 2.0 | 11.0 | 0.00 | 0.01 | 0.01 | 44 | 1008.9 |
| 20260505040213 | 56 | 28 | 2.0 | 8.0 | 0.00 | 0.01 | 0.01 | 43 | 1008.6 |
| 20260505035503 | 56 | 8 | 2.0 | 10.0 | 0.00 | 0.01 | 0.01 | 43 | 1008.4 |
| 20260505035213 | 56 | 3 | 3.0 | 10.0 | 0.00 | 0.01 | 0.01 | 44 | 1008.5 |
| 20260505034503 | 56 | 16 | 3.0 | 11.0 | 0.00 | 0.01 | 0.01 | 43 | 1008.2 |
| 20260505034213 | 56 | 14 | 3.0 | 11.0 | 0.00 | 0.01 | 0.01 | 43 | 1008.1 |
| 20260505033503 | 56 | 360 | 4.0 | 12.0 | 0.00 | 0.01 | 0.01 | 43 | 1008.1 |
| 20260505033003 | 56 | 8 | 4.0 | 12.0 | 0.00 | 0.01 | 0.01 | 43 | 1008.0 |
| 20260505032503 | 56 | 16 | 4.0 | 13.0 | 0.00 | 0.01 | 0.01 | 42 | 1007.6 |
| 20260505032003 | 56 | 15 | 5.0 | 13.0 | 0.00 | 0.01 | 0.01 | 42 | 1007.7 |
| 20260505031503 | 56 | 17 | 5.0 | 12.0 | 0.00 | 0.01 | 0.01 | 42 | 1007.7 |
| 20260505031213 | 57 | 20 | 4.0 | 12.0 | 0.00 | 0.01 | 0.01 | 43 | 1007.7 |
| 20260505030503 | 57 | 29 | 4.0 | 14.0 | 0.00 | 0.01 | 0.01 | 43 | 1007.8 |
| 20260505030004 | 57 | 26 | 3.0 | 14.0 | 0.00 | 0.01 | 0.01 | 43 | 1007.6 |
| 20260505025503 | 57 | 12 | 3.0 | 10.0 | 0.00 | 0.01 | 0.01 | 43 | 1007.6 |
| 20260505025003 | 57 | 21 | 3.0 | 10.0 | 0.00 | 0.01 | 0.01 | 43 | 1007.5 |
| 20260505024503 | 57 | 3 | 3.0 | 9.0 | 0.00 | 0.01 | 0.01 | 43 | 1007.5 |
| 20260505024003 | 57 | 346 | 4.0 | 9.0 | 0.00 | 0.01 | 0.01 | 42 | 1007.4 |
| 20260505023503 | 57 | 360 | 5.0 | 17.0 | 0.00 | 0.01 | 0.01 | 42 | 1007.2 |
| 20260505022503 | 58 | 10 | 6.0 | 17.0 | 0.00 | 0.01 | 0.01 | 42 | 1006.5 |
| 20260505022003 | 58 | 4 | 4.0 | 17.0 | 0.00 | 0.01 | 0.01 | 42 | 1006.5 |
| 20260505021503 | 58 | 360 | 4.0 | 13.0 | 0.00 | 0.01 | 0.01 | 42 | 1006.5 |
| 20260505021003 | 58 | 21 | 5.0 | 15.0 | 0.00 | 0.01 | 0.01 | 42 | 1006.2 |
| 20260505020503 | 58 | 29 | 6.0 | 17.0 | 0.00 | 0.01 | 0.01 | 42 | 1006.1 |
| 20260505020003 | 58 | 15 | 5.0 | 17.0 | 0.00 | 0.01 | 0.01 | 42 | 1006.2 |
| 20260505015503 | 59 | 10 | 6.0 | 16.0 | 0.00 | 0.01 | 0.01 | 43 | 1006.3 |
| 20260505015003 | 59 | 8 | 6.0 | 16.0 | 0.00 | 0.01 | 0.01 | 42 | 1006.3 |
| 20260505014503 | 60 | 18 | 6.0 | 14.0 | 0.00 | 0.01 | 0.01 | 41 | 1006.1 |
| 20260505014213 | 60 | 20 | 5.0 | 14.0 | 0.00 | 0.01 | 0.01 | 40 | 1006.0 |
| 20260505013503 | 60 | 14 | 6.0 | 17.0 | 0.00 | 0.01 | 0.01 | 39 | 1005.6 |
| 20260505013213 | 60 | 16 | 6.0 | 17.0 | 0.00 | 0.01 | 0.01 | 39 | 1005.7 |
| 20260505012503 | 61 | 15 | 6.0 | 13.0 | 0.00 | 0.01 | 0.01 | 38 | 1005.4 |
| 20260505012003 | 61 | 10 | 5.0 | 13.0 | 0.00 | 0.01 | 0.01 | 38 | 1005.6 |
| 20260505011003 | 62 | 355 | 6.0 | 15.0 | 0.00 | 0.01 | 0.01 | 37 | 1005.5 |
| 20260505010713 | 62 | 355 | 6.0 | 15.0 | 0.00 | 0.01 | 0.01 | 36 | 1005.5 |
| 20260505010004 | 63 | 359 | 5.0 | 13.0 | 0.00 | 0.01 | 0.01 | 35 | 1005.1 |
| 20260505005503 | 64 | 3 | 5.0 | 11.0 | 0.00 | 0.01 | 0.01 | 34 | 1005.1 |
| 20260505005004 | 64 | 1 | 6.0 | 15.0 | 0.00 | 0.01 | 0.01 | 35 | 1005.0 |
| 20260505004503 | 65 | 16 | 6.0 | 15.0 | 0.00 | 0.01 | 0.01 | 34 | 1004.8 |
| 20260505004212 | 65 | 21 | 6.0 | 14.0 | 0.00 | 0.01 | 0.01 | 34 | 1004.8 |
| 20260505003504 | 66 | 2 | 4.0 | 12.0 | 0.00 | 0.01 | 0.01 | 33 | 1004.8 |
| 20260505003004 | 66 | 359 | 5.0 | 16.0 | 0.00 | 0.01 | 0.01 | 34 | 1004.8 |
| 20260505002503 | 67 | 16 | 6.0 | 16.0 | 0.00 | 0.01 | 0.01 | 33 | 1004.6 |
| 20260505002003 | 68 | 29 | 5.0 | 16.0 | 0.00 | 0.01 | 0.01 | 34 | 1004.4 |
| 20260505001503 | 68 | 23 | 5.0 | 15.0 | 0.00 | 0.01 | 0.01 | 33 | 1004.2 |
| 20260505001003 | 68 | 24 | 5.0 | 15.0 | 0.00 | 0.01 | 0.01 | 33 | 1004.3 |
| 20260505000503 | 69 | 20 | 4.0 | 15.0 | 0.00 | 0.01 | 0.01 | 33 | 1004.3 |
| 20260505000003 | 69 | 5 | 3.0 | 15.0 | 0.00 | 0.01 | 0.01 | 33 | 1004.2 |
| 20260504235713 | 69 | 3 | 3.0 | 12.0 | 0.00 | 0.01 | 0.01 | 32 | 1004.1 |
| 20260504235003 | 69 | 10 | 4.0 | 14.0 | 0.00 | 0.01 | 0.01 | 32 | 1004.3 |
| 20260504234503 | 70 | 5 | 4.0 | 12.0 | 0.00 | 0.01 | 0.01 | 32 | 1004.1 |
| 20260504234003 | 70 | 352 | 4.0 | 19.0 | 0.00 | 0.01 | 0.01 | 32 | 1004.0 |
| 20260504233504 | 70 | 3 | 4.0 | 19.0 | 0.00 | 0.01 | 0.01 | 31 | 1004.1 |
| 20260504233214 | 71 | 6 | 5.0 | 19.0 | 0.00 | 0.01 | 0.01 | 31 | 1004.0 |
| 20260504232503 | 71 | 23 | 4.0 | 15.0 | 0.00 | 0.01 | 0.01 | 31 | 1003.9 |
| 20260504232003 | 71 | 358 | 5.0 | 16.0 | 0.00 | 0.01 | 0.01 | 33 | 1003.7 |
| 20260504231503 | 71 | 359 | 6.0 | 16.0 | 0.00 | 0.01 | 0.01 | 30 | 1003.6 |
| 20260504231214 | 72 | 360 | 5.0 | 14.0 | 0.00 | 0.01 | 0.01 | 31 | 1003.5 |